Date String (YYYY-MM-DD hh:mm:ss) UTC,Instrument flags,Ambient pressure (hPa),Sample flow (lpm),Bypass flow (lpm),Sample temperature (°C),Ambient temperature (°C),ASC tube jacket temperature (°C),LED temperature (°C),Box temperature (°C),Sample RH (%),Span deviation,Mass concentration (μg/m³),Mass concentration (μg/m³),Mass concentration (μg/m³)
DateTimeUTC,F1_M11,P_M11,Q1_M11,Q2_M11,T1_M11,T2_M11,T3_M11,T4_M11,T5_M11,U1_M11,ZSPAN_M11,X0_M11,X2_M11,X1_M11
2022-12-16 10:00:00,,0822.0,5.04,0.00,22.0,20.5,00.0,31.0,23.7,03.6,0000.0,0001.92,0001.08,0000.97
2022-12-16 10:01:00,,0822.0,4.96,0.00,22.0,20.3,00.0,30.9,23.6,03.7,0000.0,0001.92,0001.08,0000.97
2022-12-16 10:02:00,,0822.1,5.04,0.00,22.0,20.2,00.0,30.9,23.6,03.6,0000.0,0001.91,0001.08,0000.97
2022-12-16 10:03:00,,0822.1,4.98,0.00,22.0,21.0,00.0,30.9,23.8,03.7,0000.0,0001.92,0001.08,0000.97
2022-12-16 10:04:00,,0822.1,5.00,0.00,22.1,21.9,00.0,30.8,24.0,03.7,0000.0,0001.89,0001.07,0000.98
2022-12-16 10:05:00,,0822.1,5.00,0.00,22.2,22.0,00.0,30.9,24.1,03.6,0000.0,0001.91,0001.07,0000.98
2022-12-16 10:06:00,,0822.1,4.99,0.00,22.2,21.6,00.0,30.9,24.0,03.6,0000.0,0002.00,0001.09,0000.98
2022-12-16 10:07:00,,0822.1,5.01,0.00,22.1,21.2,00.0,30.9,23.9,03.6,0000.0,0002.02,0001.10,0000.98
2022-12-16 10:08:00,,0822.1,5.00,0.00,22.1,20.9,00.0,30.9,23.8,03.4,0000.0,0002.00,0001.11,0000.98
2022-12-16 10:09:00,,0822.1,4.97,0.00,22.0,20.7,00.0,30.9,23.7,03.4,0000.0,0002.03,0001.14,0001.00
2022-12-16 10:10:00,,0822.0,5.03,0.00,22.0,20.5,00.0,30.9,23.7,03.5,0000.0,0001.81,0001.16,0001.01
2022-12-16 10:11:00,,0822.0,4.97,0.00,22.0,20.3,00.0,30.9,23.6,03.7,0000.0,0001.57,0001.15,0001.01
2022-12-16 10:12:00,,0822.1,5.02,0.00,21.9,20.2,00.0,30.9,23.6,03.8,0000.0,0001.63,0001.15,0001.00
2022-12-16 10:13:00,,0822.1,5.00,0.00,21.9,20.9,00.0,30.8,23.7,03.6,0000.0,0001.63,0001.15,0000.99
2022-12-16 10:14:00,,0822.1,4.97,0.00,22.1,22.0,00.0,30.8,24.0,03.5,0000.0,0001.62,0001.14,0000.99
2022-12-16 10:15:00,,0822.1,5.04,0.00,22.2,22.2,00.0,30.9,24.1,03.5,0000.0,0001.59,0001.13,0000.98
2022-12-16 10:16:00,,0822.1,4.94,0.00,22.2,21.9,00.0,30.9,24.1,03.5,0000.0,0001.55,0001.12,0000.98
2022-12-16 10:17:00,,0822.1,5.05,0.00,22.2,21.5,00.0,30.9,24.0,03.6,0000.0,0001.49,0001.11,0000.98
2022-12-16 10:18:00,,0822.1,4.95,0.00,22.2,21.2,00.0,31.0,23.9,03.6,0000.0,0001.69,0001.13,0000.98
2022-12-16 10:19:00,,0822.1,5.05,0.00,22.1,21.0,00.0,31.0,23.9,03.6,0000.0,0001.73,0001.15,0000.99
2022-12-16 10:20:00,,0822.1,4.96,0.00,22.1,20.8,00.0,31.0,23.9,03.6,0000.0,0001.70,0001.13,0000.99
2022-12-16 10:21:00,,0822.1,5.05,0.00,22.1,20.7,00.0,31.0,23.8,03.7,0000.0,0001.65,0001.10,0000.98
2022-12-16 10:22:00,,0822.1,4.97,0.00,22.1,20.6,00.0,30.9,23.8,03.8,0000.0,0001.64,0001.10,0000.98
2022-12-16 10:23:00,,0822.1,5.01,0.00,22.0,20.5,00.0,30.9,23.8,03.7,0000.0,0001.61,0001.10,0000.99
2022-12-16 10:24:00,,0822.1,5.00,0.00,22.0,20.4,00.0,30.9,23.7,03.6,0000.0,0001.61,0001.12,0001.00
2022-12-16 10:25:00,,0822.1,4.97,0.00,22.0,20.8,00.0,30.9,23.8,03.6,0000.0,0001.70,0001.14,0001.01
2022-12-16 10:26:00,,0822.1,5.04,0.00,22.1,21.9,00.0,30.9,24.0,03.5,0000.0,0001.77,0001.16,0001.02
2022-12-16 10:27:00,,0822.1,4.96,0.00,22.2,22.4,00.0,30.9,24.2,03.5,0000.0,0002.32,0001.16,0001.02
2022-12-16 10:28:00,,0822.1,5.00,0.00,22.2,21.9,00.0,30.9,24.2,03.6,0000.0,0002.78,0001.16,0001.02
2022-12-16 10:29:00,,0822.1,5.03,0.00,22.2,21.5,00.0,31.0,24.0,03.6,0000.0,0002.60,0001.15,0001.04
2022-12-16 10:30:00,,0822.1,4.96,0.00,22.2,21.2,00.0,31.0,24.0,03.6,0000.0,0002.58,0001.15,0001.04
2022-12-16 10:31:00,,0822.0,5.03,0.00,22.2,20.9,00.0,31.0,23.9,03.6,0000.0,0002.62,0001.16,0001.04
2022-12-16 10:32:00,,0821.9,4.97,0.00,22.1,20.7,00.0,31.0,23.8,03.6,0000.0,0002.66,0001.19,0001.05
2022-12-16 10:33:00,,0822.0,5.03,0.00,22.1,20.5,00.0,31.0,23.8,03.5,0000.0,0002.69,0001.21,0001.07
2022-12-16 10:34:00,,0822.0,4.98,0.00,22.0,20.4,00.0,31.0,23.7,03.5,0000.0,0002.76,0001.24,0001.10
2022-12-16 10:35:00,,0822.0,4.97,0.00,22.0,20.3,00.0,30.9,23.6,03.5,0000.0,0002.81,0001.26,0001.12
2022-12-16 10:36:00,,0822.0,5.04,0.00,22.0,20.4,00.0,30.9,23.5,03.6,0000.0,0002.81,0001.28,0001.14
2022-12-16 10:37:00,,0822.0,4.99,0.00,22.0,21.4,00.0,30.8,23.8,03.5,0000.0,0002.81,0001.30,0001.16
2022-12-16 10:38:00,,0822.0,5.01,0.00,22.1,22.3,00.0,30.8,24.1,03.5,0000.0,0002.40,0001.32,0001.18
2022-12-16 10:39:00,,0822.0,5.01,0.00,22.2,22.5,00.0,30.9,24.2,03.4,0000.0,0001.82,0001.34,0001.20
2022-12-16 10:40:00,,0822.0,4.99,0.00,22.2,21.9,00.0,30.9,24.1,03.5,0000.0,0001.91,0001.36,0001.22
2022-12-16 10:41:00,,0822.0,4.98,0.00,22.2,21.3,00.0,31.0,23.9,03.4,0000.0,0002.20,0001.38,0001.23
2022-12-16 10:42:00,,0822.0,5.04,0.00,22.1,20.9,00.0,31.0,23.8,03.5,0000.0,0002.29,0001.37,0001.24
2022-12-16 10:43:00,,0822.0,4.97,0.00,22.1,20.6,00.0,31.0,23.7,03.5,0000.0,0002.26,0001.36,0001.24
2022-12-16 10:44:00,,0822.0,5.02,0.00,22.0,20.5,00.0,30.9,23.7,03.4,0000.0,0002.23,0001.36,0001.25
2022-12-16 10:45:00,,0822.1,4.98,0.00,22.0,20.4,00.0,30.9,23.6,03.5,0000.0,0002.21,0001.35,0001.25
2022-12-16 10:46:00,,0822.2,5.00,0.00,21.9,20.2,00.0,30.9,23.5,03.4,0000.0,0002.26,0001.38,0001.24
2022-12-16 10:47:00,,0822.1,5.00,0.00,21.9,20.2,00.0,30.9,23.5,03.4,0000.0,0002.29,0001.39,0001.24
2022-12-16 10:48:00,,0822.1,4.98,0.00,21.9,21.1,00.0,30.8,23.7,03.5,0000.0,0002.32,0001.38,0001.23
2022-12-16 10:49:00,,0821.9,5.03,0.00,22.0,22.0,00.0,30.8,23.9,03.4,0000.0,0002.40,0001.39,0001.22
2022-12-16 10:50:00,,0822.1,4.97,0.00,22.1,21.8,00.0,30.9,23.9,03.4,0000.0,0002.48,0001.39,0001.20
2022-12-16 10:51:00,,0822.2,5.05,0.00,22.1,21.4,00.0,30.9,23.9,03.5,0000.0,0002.44,0001.37,0001.18
2022-12-16 10:52:00,,0822.1,4.97,0.00,22.0,21.0,00.0,30.9,23.8,03.4,0000.0,0002.18,0001.33,0001.16
2022-12-16 10:53:00,,0821.8,4.98,0.00,22.0,20.7,00.0,30.9,23.7,03.4,0000.0,0001.97,0001.33,0001.15
2022-12-16 10:54:00,,0822.0,5.05,0.00,22.0,20.5,00.0,30.9,23.6,03.5,0000.0,0001.99,0001.32,0001.13
2022-12-16 10:55:00,,0822.1,4.97,0.00,21.9,20.3,00.0,30.9,23.5,03.5,0000.0,0002.03,0001.33,0001.12
2022-12-16 10:56:00,,0821.8,5.04,0.00,21.9,20.2,00.0,30.8,23.5,03.5,0000.0,0002.02,0001.31,0001.10
2022-12-16 10:57:00,,0821.8,4.98,0.00,21.9,20.5,00.0,30.8,23.6,03.5,0000.0,0001.96,0001.28,0001.10
2022-12-16 10:58:00,,0821.9,5.00,0.00,22.0,21.7,00.0,30.8,23.8,03.5,0000.0,0001.91,0001.26,0001.09
2022-12-16 10:59:00,,0821.9,5.01,0.00,22.1,22.3,00.0,30.8,24.0,03.4,0000.0,0001.84,0001.25,0001.08
